Location: Grust
(42.8833°N, 0.0333°W)
Time: 19:46:58
(UTC+00:00)

Cosmos 968 Rocket - Pass Details

Date: 25 October 2020
Orbit: 741 x 770 km, 74.0° (Epoch: 22 November)

Event Time Altitude Azimuth Distance (km) Brightness Sun altitude
Rises 19:18:48 0° 336° (NNW) 3,238 7.1 -25.7°
Reaches altitude 10° 19:21:13 10° 333° (NNW) 2,304 6.4 -26.2°
Maximum altitude 19:26:21 61° 254° (WSW) 860 3.9 -27.1°
Enters shadow 19:28:01 40° 194° (SSW) 1,102 4.3 -27.4°
